DECAYED

OBJECT AZ, 43805 (Decayed)

Orbit data source: Space-Track

You're viewing an uncataloged RSO

Recently launched and/or uncataloged RSOs may have evolving metadata. Metadata may include the following, but is not limited to: Owner, Manufacturer, Bus, Motor, and Mission.

OBJECT AZ, 43805 was a satellite in LEO that was launched on Mon, 03 Dec 2018 UTC via an FALCON 9 launch vehicle from the Air Force Western Test Range (AFWTR). Unknown objects in Earth's orbit typically refer to objects detected orbiting the Earth but have not yet been identified or cataloged. These objects could be anything from previously untracked satellites, spent rocket stages, debris from satellite collisions, or even natural meteoroids temporarily captured by Earth's gravity. This object's orbit decayed before it could be identified.

Not visible in the next 10 days
Identifier
43805, 2018-099AZ
Orbit
Decayed
Country
Flag of TBDTBD
Related business
Flag of KZAl-Farabi Kazakh National University (KZ)
Manufacturer
Al-Farabi KNU
Mission
Decayed Amateur Technology
Bus & Motor
CUBESAT 3U, Unknown motor
Mass
4 kg wet, 4 kg dry
Launch date (UTC)
2018-12-03 (8 years ago)
Launch vehicle
FALCON 9
Launch site
Air Force Western Test Range (AFWTR)
Object type
Unknown
Shape & HBR
Box, 0.2 m
Radar Cross Section
0.035 m², Medium (>0.1 m² and < 1m²)

Expand to show TLE details & history
Last TLE update: 4 months ago

TLE from 4 months ago
0 OBJECT AZ
1 43805U 18099AZ  26127.60098663  .13434312  25576-5  37545-3 0  9991
2 43805  97.3775 208.2064 0016182 267.9986  91.9462 16.43928781408683
Epoch: 2026-05-07T14:25Z
TLE epoch observation values (Epoch: 2026-05-07T14:25:25.244Z)
Latitude
-0.00009°
Longitude
126.40644°
Altitude
159.006 km
Speed
7.81 km/s
True Right ascension
13h 52m 49s
True Declination
0° 00' 00"
Sunlit
Object was in full shadow at epoch
Visualization orbit readout
Latitude
Unknown
Longitude
Unknown
Altitude
Unknown
Speed
Unknown
Apparent Right ascension
Unknown
Apparent Declination
Unknown
Sunlit
N/A
Visualization observer readout
Local Sidereal Time
10:20:27
Azimuth
Unknown
Elevation
Unknown
Doppler factor
Unknown
Orbital elements
Apogee altitude
162.741 km
Perigee altitude
141.606 km
Semi-major axis
6,530.311 km
Eccentricity
0.00162
Inclination
97.3775°
RAAN
208.2064°
Arg. of periapsis
267.9986°
True anomaly
92.13151°
Mean anomaly
91.9462°
Eccentric anomaly
92.03886°
Mean motion
4.11285 °/min
Orbital period
87.53 mins
BSTAR
0.00037545
Loading maneuver chart data...
Computing Atmospheric mass density...
Loading historical data...
Loading historical data...
Loading historical data...
Loading historical data...
Loading historical data...
Loading historical data...
Loading historical data...

Documentation

Showing up to 5 results
|